[[{"header":{"parameterUnit":"m.s-1","parameterCategory":1,"la1":30.2991,"la2":30.254,"lo1":-89.0895,"lo2":-89.0444,"dy":0.0017,"dx":0.0017,"nx":28,"ny":28,"refTime":"2026-01-01T03:00:00:Z","depth":0,"parameterNumber":2,"parameterNumberName":"U-component_of_WINDS"},"data":[0,0,0,0,0,0,0,0,0,0,0,0,0,0,0,0,0,0,0,0,0,0,0,0,0,0,0,0,0,0,0,0,0,0,0,0,0,0,0,0,0,0,0,0,0,0,0,0,0,0,0,0,0,0,0,0,0,0,3.6003,3.6005,0,3.6166,3.6168,3.617,3.614,3.6138,3.6135,3.6132,3.6299,3.6306,3.6313,0,0,0,0,0,0,0,0,0,0,0,0,0,3.5665,3.5671,3.6003,3.6005,3.6007,3.6166,3.6168,3.617,3.6141,3.6137,3.6134,3.6131,3.6297,3.6305,3.6314,0,0,0,0,0,0,0,0,0,0,0,0,0,3.5818,3.5673,3.6002,3.6011,3.6014,3.6165,3.6168,3.6171,3.6142,3.6137,3.6133,3.6129,3.6294,3.6304,3.6315,3.6468,0,0,3.6348,3.6352,0,0,0,0,0,0,0,0,3.5809,3.583,3.6008,3.6011,3.6014,3.6128,3.611,3.627,3.6143,3.6093,3.6132,3.6127,3.6246,3.626,3.63,3.6476,3.6483,3.6349,3.6355,3.636,3.6363,0,0,0,0,0,0,0,3.5799,3.5823,3.6067,3.6011,3.6014,3.6007,3.6024,3.614,3.6192,3.6097,3.6095,3.6115,3.6247,3.629,3.6304,3.6485,3.6348,3.6358,3.6365,3.6369,3.679,3.6795,0,0,0,0,0,0,3.5785,3.5815,3.6062,3.6072,3.5899,3.6016,3.6035,3.6096,3.619,3.6201,3.6119,3.6113,3.6274,3.6292,3.631,3.6491,3.636,3.637,3.6376,3.6785,3.6791,3.6796,0,0,0,0,0,0,3.5778,3.5808,3.6056,3.5943,3.5974,3.6027,3.6095,3.6102,3.6145,3.6207,3.6216,3.6154,3.6271,3.6295,3.6428,3.6497,3.6375,3.6384,3.678,3.6787,3.6794,3.6858,0,0,0,0,0,0,3.5769,3.5805,3.5864,3.5945,3.598,3.6171,3.61,3.6108,3.6163,3.6158,3.6242,3.6252,3.627,3.6412,3.6438,3.6509,3.6393,3.6774,3.6783,3.6791,3.685,3.6866,3.6881,0,0,0,0,0,3.5757,3.5877,3.5867,3.5897,3.6055,3.6175,3.6196,3.6214,3.6169,3.6228,3.6268,3.6249,3.6486,3.6426,3.6455,3.6531,3.6769,3.678,3.6791,3.6843,3.6863,3.688,0,0,0,0,0,0,3.5803,3.5887,3.5878,3.6028,3.6094,3.617,3.6245,3.6235,3.6316,3.6308,3.6327,3.6346,3.648,3.652,3.6451,3.6682,3.6621,3.6638,3.6651,3.667,3.6686,3.6672,3.6402,0,0,0,0,0,3.5831,3.5922,3.5991,3.6116,3.615,3.6192,3.6245,3.6254,3.6324,3.6352,3.6401,3.6469,3.6559,3.6618,3.6704,3.6857,3.6872,3.6923,3.6938,3.695,3.6964,3.7044,3.7066,3.6832,3.6831,3.6831,0,0,3.5889,3.5946,3.6003,3.6127,3.618,3.6272,3.6216,3.6317,3.6386,3.6367,3.6494,3.6533,3.6611,3.6753,3.6819,3.679,3.7033,3.6964,3.6974,3.698,3.7057,3.7079,3.7099,3.6839,3.6837,3.6836,0,0,3.6041,3.6095,3.6204,3.6258,3.6338,3.6365,3.6391,3.6469,3.6493,3.6621,3.6608,3.669,3.6845,3.69,3.6948,3.712,3.7105,3.7148,3.7227,3.7305,3.7323,3.734,3.7397,3.7418,3.7162,3.7162,3.7162,0,3.6103,3.6242,3.6261,3.6363,3.6416,3.6404,3.6513,3.6564,3.6669,3.6706,3.6673,3.6865,3.6917,3.707,3.7111,3.7153,3.7181,3.7137,3.7319,3.7336,3.7351,3.7406,3.7428,3.7167,3.7166,3.7166,3.7165,0,3.6312,3.6409,3.6487,3.6587,3.665,3.6756,3.6789,3.6851,3.6854,3.6884,3.7013,3.7075,3.7172,3.721,3.7214,3.7363,3.7342,3.7315,3.7253,3.7378,3.7429,3.7451,3.7173,3.7171,3.717,3.7169,0,0,3.6497,3.6605,3.6633,3.6677,3.6764,3.6839,3.6943,3.7038,3.7088,3.7162,3.7247,3.7378,3.7352,3.7406,3.7417,3.7486,3.7614,3.7449,3.7451,3.7474,3.7777,3.7795,3.7819,3.7606,3.761,3.7613,3.7769,0,3.6654,3.6836,3.6856,3.7019,3.7106,3.7096,3.7186,3.7249,3.728,3.7359,3.7394,3.7484,3.7445,3.7477,3.7545,3.7584,3.7674,3.7573,3.7683,3.7687,3.7659,3.7847,3.7866,3.8011,3.779,3.7794,3.7796,0,3.6861,3.6938,3.711,3.7182,3.722,3.7301,3.7387,3.7464,3.7534,3.7552,3.7612,3.7614,3.7719,3.7657,3.7801,3.7732,3.7779,3.7804,3.781,3.7818,3.7746,3.7856,3.8058,3.8078,3.7829,3.7827,3.7824,0,3.6973,3.7121,3.7241,3.728,3.7369,3.7425,3.7465,3.7531,3.7586,3.7662,3.7697,3.7785,3.7832,3.79,3.7924,3.7877,3.8067,3.8007,3.8082,3.8081,3.8119,3.8116,3.8327,3.8156,3.8156,3.8155,3.8155,0,3.7144,3.7248,3.7292,3.7366,3.7481,3.7503,3.7617,3.7654,3.7713,3.7793,3.7791,3.7866,3.7895,3.7975,3.7995,3.8109,3.8132,3.8148,3.8151,3.8145,3.8143,3.8173,3.8162,3.8161,3.816,3.8159,3.8158,0,3.7287,3.7321,3.7451,3.7525,3.7546,3.7627,3.769,3.776,3.7791,3.7891,3.7916,3.7964,3.8057,3.8089,3.8203,3.8216,3.8348,3.8345,3.8323,3.8323,3.8394,3.8386,3.863,3.8661,3.8473,3.8475,3.8476,0,3.7392,3.7471,3.7553,3.7606,3.7648,3.7734,3.7789,3.7814,3.7871,3.7957,3.8016,3.8109,3.8183,3.8333,3.8377,3.8463,3.846,3.8539,3.8472,3.8463,3.8456,3.8449,3.8455,3.855,3.8552,3.8554,3.8555,0,3.7573,3.7585,3.7665,3.7751,3.7816,3.7885,3.7951,3.7995,3.8029,3.8094,3.8188,3.8247,3.8362,3.8452,3.854,3.8581,3.8573,3.8577,3.8597,3.8591,3.8573,3.8579,3.8353,3.857,3.8568,3.8567,3.8567,3.8566,3.7697,3.7766,3.7834,3.7922,3.7974,3.8036,3.8105,3.8143,3.8223,3.8317,3.8328,3.8429,3.8496,3.8613,3.8658,3.8736,3.8714,3.8746,3.8753,3.8759,3.8762,3.8564,3.8753,3.8753,3.8753,3.8752,3.8752,0,3.7874,3.7917,3.7998,3.809,3.8159,3.8147,3.822,3.8278,3.8367,3.843,3.8503,3.8611,3.8699,3.875,3.8838,3.8891,3.8889,3.8913,3.8907,3.8915,3.878,3.8751,3.8912,3.8912,3.8912,3.8912,3.8912,3.8912,3.7974,3.8089,3.8109,3.8249,3.8292,3.839,3.8432,3.8488,3.8538,3.8658,3.8731,3.8764,3.8822,3.8913,3.8993,3.9005,3.9036,3.9061,3.9071,3.8942,3.8925,3.891,3.8882,3.9068,3.9069,3.9199,3.92,3.9201]},{"header":{"parameterUnit":"m.s-1","parameterCategory":1,"la1":30.2991,"la2":30.254,"lo1":-89.0895,"lo2":-89.0444,"dy":0.0017,"dx":0.0017,"nx":28,"ny":28,"refTime":"2026-01-01T03:00:00:Z","depth":0,"parameterNumber":3,"parameterNumberName":"V-component_of_WINDS"},"data":[0,0,0,0,0,0,0,0,0,0,0,0,0,0,0,0,0,0,0,0,0,0,0,0,0,0,0,0,0,0,0,0,0,0,0,0,0,0,0,0,0,0,0,0,0,0,0,0,0,0,0,0,0,0,0,0,0,0,2.578,2.578,0,2.5821,2.5821,2.5822,2.5798,2.5797,2.5796,2.5795,2.5834,2.5837,2.5839,0,0,0,0,0,0,0,0,0,0,0,0,0,2.5677,2.5679,2.578,2.578,2.5781,2.5821,2.5821,2.5822,2.5799,2.5797,2.5796,2.5795,2.5834,2.5836,2.5839,0,0,0,0,0,0,0,0,0,0,0,0,0,2.572,2.568,2.578,2.5774,2.5774,2.5821,2.5821,2.5822,2.5799,2.5797,2.5795,2.5794,2.5833,2.5836,2.5839,2.5893,0,0,2.5849,2.585,0,0,0,0,0,0,0,0,2.5718,2.5724,2.5774,2.5775,2.5774,2.5803,2.58,2.5846,2.5799,2.5789,2.5795,2.5793,2.5825,2.5829,2.584,2.5895,2.5897,2.5849,2.5851,2.5852,2.5853,0,0,0,0,0,0,0,2.5715,2.5722,2.5796,2.5775,2.5775,2.5768,2.5772,2.5808,2.5816,2.579,2.5789,2.5794,2.5825,2.5837,2.5841,2.5897,2.5849,2.5852,2.5854,2.5855,2.5996,2.5998,0,0,0,0,0,0,2.5713,2.572,2.5795,2.5797,2.5741,2.5771,2.5776,2.5795,2.5816,2.5817,2.5795,2.5793,2.5833,2.5837,2.5842,2.5906,2.5852,2.5855,2.5857,2.5994,2.5996,2.5998,0,0,0,0,0,0,2.571,2.572,2.5793,2.5758,2.5767,2.5775,2.5797,2.5797,2.581,2.582,2.5821,2.5807,2.5832,2.5838,2.588,2.5907,2.5857,2.586,2.5992,2.5995,2.5997,2.6034,0,0,0,0,0,0,2.5708,2.5719,2.5741,2.5759,2.5769,2.5832,2.5799,2.5799,2.5815,2.5812,2.5831,2.5832,2.5831,2.5876,2.5884,2.591,2.5862,2.599,2.5993,2.5997,2.603,2.6037,2.6043,0,0,0,0,0,2.5704,2.5749,2.5742,2.5751,2.5796,2.5833,2.5839,2.5837,2.5818,2.5839,2.5845,2.5832,2.5903,2.588,2.5889,2.5917,2.5988,2.5992,2.5996,2.6027,2.6036,2.6043,0,0,0,0,0,0,2.5733,2.5751,2.5744,2.5796,2.5813,2.5829,2.5856,2.5847,2.5869,2.5865,2.5861,2.5865,2.591,2.5917,2.5892,2.5969,2.5942,2.5948,2.5963,2.5971,2.5978,2.5975,2.5865,0,0,0,0,0,2.5746,2.5775,2.5789,2.5834,2.5843,2.5848,2.5864,2.5861,2.5879,2.5886,2.5895,2.5912,2.5937,2.5955,2.5979,2.6031,2.6034,2.6054,2.6061,2.6066,2.6072,2.6098,2.6107,2.6012,2.6012,2.6012,0,0,2.5772,2.5785,2.5804,2.584,2.5853,2.5883,2.5854,2.5887,2.5909,2.589,2.5931,2.5938,2.5956,2.6004,2.6025,2.6012,2.6098,2.6072,2.6076,2.6078,2.6103,2.6112,2.612,2.6015,2.6014,2.6014,0,0,2.5834,2.5848,2.5886,2.59,2.592,2.5923,2.5932,2.595,2.5954,2.5995,2.5981,2.6006,2.6051,2.6064,2.6077,2.6142,2.6131,2.615,2.6185,2.6211,2.6219,2.6225,2.6248,2.6256,2.6156,2.6156,2.6156,0,2.5864,2.5909,2.5907,2.5941,2.5956,2.5941,2.5979,2.5992,2.6019,2.6029,2.6014,2.6069,2.608,2.613,2.6146,2.6157,2.6166,2.6148,2.6218,2.6225,2.6231,2.6252,2.6261,2.6158,2.6158,2.6157,2.6157,0,2.5944,2.5976,2.6004,2.6031,2.6049,2.6085,2.6086,2.6105,2.61,2.6104,2.6144,2.6157,2.6183,2.6195,2.619,2.6243,2.6234,2.6219,2.6191,2.6242,2.6262,2.627,2.6161,2.616,2.616,2.6159,0,0,2.6027,2.6052,2.6062,2.6073,2.6094,2.6118,2.6151,2.6178,2.6193,2.6212,2.6239,2.6277,2.6262,2.6277,2.6273,2.6296,2.6346,2.6277,2.6277,2.6289,2.6403,2.6415,2.6424,2.6338,2.6339,2.6341,2.6402,0,2.6091,2.6151,2.6149,2.6205,2.6233,2.6218,2.6248,2.6263,2.6267,2.629,2.6294,2.6321,2.63,2.6308,2.633,2.6335,2.6369,2.6331,2.6362,2.6363,2.6358,2.6435,2.6447,2.6504,2.6409,2.6411,2.6412,0,2.6173,2.6195,2.6254,2.6269,2.628,2.6307,2.633,2.6353,2.6369,2.637,2.6385,2.6378,2.641,2.6382,2.6426,2.6401,2.6413,2.6417,2.6419,2.6422,2.6391,2.6439,2.6523,2.6531,2.6424,2.6423,2.6422,0,2.6227,2.6271,2.6311,2.6321,2.634,2.6359,2.6368,2.6382,2.6397,2.6417,2.6427,2.645,2.6462,2.6479,2.6477,2.6457,2.6522,2.6494,2.6523,2.6523,2.6537,2.6536,2.6623,2.6546,2.6546,2.6546,2.6546,0,2.6298,2.6334,2.6335,2.636,2.64,2.6396,2.6435,2.6442,2.6454,2.6479,2.6467,2.6491,2.6487,2.651,2.6508,2.6544,2.655,2.6551,2.655,2.6552,2.6552,2.656,2.6556,2.6548,2.6548,2.6547,2.6547,0,2.6364,2.6367,2.641,2.6424,2.6428,2.6457,2.6468,2.6491,2.6494,2.6525,2.6532,2.6536,2.6562,2.6562,2.6592,2.6591,2.6635,2.663,2.663,2.6628,2.6657,2.6654,2.6752,2.6765,2.668,2.6681,2.6681,0,2.6409,2.6437,2.6454,2.647,2.648,2.6506,2.6522,2.6519,2.6535,2.6554,2.6575,2.66,2.662,2.6662,2.6667,2.6689,2.6684,2.6716,2.6687,2.6687,2.6683,2.6681,2.6684,2.6722,2.6723,2.6724,2.6724,0,2.6489,2.6488,2.6512,2.6535,2.6554,2.6572,2.6589,2.6603,2.6601,2.662,2.6647,2.6662,2.6692,2.6717,2.6738,2.6745,2.6734,2.6734,2.6741,2.6743,2.6742,2.6742,2.6645,2.6731,2.6731,2.673,2.673,2.673,2.6545,2.6569,2.6584,2.661,2.6622,2.6638,2.666,2.6665,2.6688,2.6712,2.6709,2.6738,2.6752,2.6779,2.6788,2.6811,2.6799,2.681,2.6813,2.6816,2.6819,2.6739,2.6814,2.6814,2.6814,2.6814,2.6814,0,2.6623,2.6632,2.6656,2.668,2.67,2.6688,2.6706,2.6723,2.675,2.6763,2.6783,2.6813,2.6837,2.6843,2.6865,2.6882,2.6877,2.6888,2.6886,2.6888,2.6828,2.6819,2.6891,2.6891,2.6891,2.6891,2.6891,2.6891,2.6666,2.6704,2.6706,2.6749,2.6758,2.6787,2.6798,2.6812,2.6823,2.6857,2.6877,2.6881,2.6891,2.6914,2.6935,2.6936,2.6944,2.6956,2.6955,2.69,2.6892,2.6885,2.6876,2.6959,2.6959,2.7013,2.7013,2.7014]}]]